This is the latest recevied weather packets stored in our database for station/object KF4WSW-13. If no packets are shown the sender has not sent any weather packets the latest 10 day(s).
| Time | Temp. | Humidity | Pressure | Rain* | Wind** | Luminosity | Snow |
|---|---|---|---|---|---|---|---|
| 1777842517 | 23.89° C | 65% | 1013.9 hPa | 0 mm | - | 132 W/m² | - |
| 1777842215 | 23.89° C | 63% | 1013.5 hPa | 0 mm | - | 224 W/m² | - |
| 1777841909 | 23.89° C | 66% | 1013.9 hPa | 0 mm | - | 257 W/m² | - |
| 1777841606 | 23.89° C | 65% | 1013.8 hPa | 0 mm | - | 305 W/m² | - |
| 1777841303 | 23.89° C | 66% | 1013.6 hPa | 0 mm | - | 271 W/m² | - |
| 1777841001 | 23.89° C | 64% | 1013.6 hPa | 0 mm | - | 472 W/m² | - |
| 1777840698 | 24.44° C | 63% | 1013.7 hPa | 0 mm | - | 495 W/m² | - |
| 1777840395 | 23.89° C | 65% | 1013.5 hPa | 0 mm | - | 492 W/m² | - |
| 1777840092 | 23.89° C | 64% | 1013.7 hPa | 0 mm | - | 502 W/m² | - |
| 1777839790 | 23.89° C | 65% | 1013.7 hPa | 0 mm | - | 517 W/m² | - |
| 1777839488 | 23.89° C | 64% | 1014 hPa | 0 mm | - | 526 W/m² | - |
| 1777839184 | 24.44° C | 64% | 1013.9 hPa | 0 mm | - | 541 W/m² | - |
| 1777838882 | 24.44° C | 65% | 1014.3 hPa | 0 mm | - | 556 W/m² | - |
| 1777838577 | 24.44° C | 63% | 1013.8 hPa | 0 mm | - | 564 W/m² | - |
| 1777838275 | 23.89° C | 64% | 1014.2 hPa | 0 mm | - | 584 W/m² | - |
| 1777837971 | 24.44° C | 63% | 1014.4 hPa | 0 mm | - | 600 W/m² | - |
| 1777837669 | 24.44° C | 64% | 1014.5 hPa | 0 mm | - | 620 W/m² | - |
| 1777837365 | 24.44° C | 62% | 1014.3 hPa | 0 mm | - | 633 W/m² | - |
| 1777837061 | 24.44° C | 63% | 1014.3 hPa | 0 mm | - | 647 W/m² | - |
| 1777836757 | 24.44° C | 62% | 1014.2 hPa | 0 mm | - | 644 W/m² | - |
| 1777836453 | 24.44° C | 62% | 1014.8 hPa | 0 mm | - | 674 W/m² | - |
| 1777836148 | 24.44° C | 61% | 1014.7 hPa | 0 mm | - | 699 W/m² | - |
| 1777835845 | 25° C | 62% | 1014.6 hPa | 0 mm | - | 718 W/m² | - |
| 1777835542 | 24.44° C | 60% | 1014.9 hPa | 0 mm | - | 713 W/m² | - |
| 1777835239 | 24.44° C | 64% | 1015.2 hPa | 0 mm | - | 665 W/m² | - |
* Rain latest hour (hover to see other rain measurements)
** Current wind speed in m/s (hover to see current wind gust speed)